Regional Weather Roundup
Issued by NWS

Home | Current Version | Previous Version | Text Only | Print | Product List | Glossary Off
Versions: 1 2 3 4 5 6 7 8 9 10 11 12 13 14 15 16 17 18 19 20 21 22 23 24 25 26 27 28 29 30 31 32 33 34 35 36 37 38 39 40 41 42 43 44 45 46 47 48 49 50

000
ASUS45 KPSR 291000
RWRAZ

ARIZONA HOURLY REGIONAL WEATHER ROUNDUP
NATIONAL WEATHER SERVICE PHOENIX AZ
300 AM MST FRI MAY 29 2015

NOTE: FAIR INDICATES FEW OR NO CLOUDS BELOW 12,000 FEET WITH NO
SIGNIFICANT WEATHER AND/OR OBSTRUCTIONS TO VISIBILITY.

AZZ001>003-036-291100-
NORTHWEST ARIZONA

CITY           SKY/WX    TMP DP  RH WIND       PRES   REMARKS
KINGMAN        MOCLDY    69  22  16 S6        30.00S
$$

AZZ004>008-015-016-018-291100-
NORTH CENTRAL ARIZONA

CITY           SKY/WX    TMP DP  RH WIND       PRES   REMARKS
GRAND CANYON   PTCLDY    43  38  82 CALM      30.20F
WILLIAMS       CLOUDY    50  27  40 SE3       30.27S
PRESCOTT       MOCLDY    58  28  32 S8        30.11S
FLAGSTAFF      NOT AVBL
PAYSON         MOCLDY    59  28  31 CALM      30.12F
PAGE           MOCLDY    67  42  40 NW6       30.08R
$$

AZZ009>014-017-291100-
NORTHEAST ARIZONA

CITY           SKY/WX    TMP DP  RH WIND       PRES   REMARKS
WINSLOW        NOT AVBL
SAINT JOHNS    PTCLDY    54  23  30 NE3       30.13R
WINDOW ROCK    CLEAR     43  30  60 CALM      30.21R
$$

AZZ023-291100-
GREATER PHOENIX AREA

CITY           SKY/WX    TMP DP  RH WIND       PRES   REMARKS
PHOENIX        PTCLDY    77  33  20 SW6       29.84S
LUKE AFB       CLEAR     76  33  21 E1        29.85R
DEER VALLEY    CLEAR     69  32  25 CALM      29.86S
SCOTTSDALE     CLEAR     72  41  32 CALM      29.88S
$$

AZZ027-028-291100-
SOUTHWEST MARICOPA COUNTY AND PINAL COUNTY

CITY           SKY/WX    TMP DP  RH WIND       PRES   REMARKS
CASA GRANDE    CLEAR     68  36  30 NE6       29.87F
GILA BEND      FAIR      73  36  25 S2        29.84S
$$

AZZ503-504-507>509-291100-
SOUTHEAST ARIZONA

CITY           SKY/WX    TMP DP  RH WIND       PRES   REMARKS
TUCSON         CLEAR     70  34  26 S5        29.98S
DAVIS-MONTHAN  CLEAR     67  34  29 SE5       29.96S
NOGALES        CLEAR     59  32  36 CALM      30.04F
SIERRA VISTA   CLEAR     66  26  21 W9        30.10S
SAFFORD        PTCLDY    63  23  21 SE7       29.96S
$$

AZZ020-021-025-026-031-291100-
SOUTHWEST ARIZONA

CITY           SKY/WX    TMP DP  RH WIND       PRES   REMARKS
YUMA           NOT AVBL
$$

CAZ031-033-041-043-047-048-061-291100-
SOUTHERN CALIFORNIA

CITY           SKY/WX    TMP DP  RH WIND       PRES   REMARKS
DOWNTOWN L.A.  MOCLDY    59  56  89 CALM      29.94F
L.A. AIRPORT   CLOUDY    59  56  89 S3        29.95F
SAN DIEGO      CLOUDY    61  55  81 S3        29.96F
BURBANK        CLEAR     59  54  83 SE3       29.93F
ONTARIO        CLEAR     58  54  86 W6        29.94F
RIVERSIDE      CLEAR     59  55  87 W3        29.94F
PALM SPRINGS   CLEAR     76  52  43 CALM      29.83F
EL CENTRO NAS  CLEAR     65  49  56 E7        29.80R
IMPERIAL       CLEAR     70  55  59 E5        29.78R
BLYTHE         CLEAR     71  35  26 E7        29.81S
$$

NVZ020-UTZ003-291100-
SOUTHERN NEVADA-UTAH

CITY           SKY/WX    TMP DP  RH WIND       PRES   REMARKS
LAS VEGAS      NOT AVBL
SALT LAKE CITY CLEAR     53  43  68 SE7       30.15S
$$

NMZ009-TXZ055-291100-
NEW MEXICO-WEST TEXAS

CITY           SKY/WX    TMP DP  RH WIND       PRES   REMARKS
ALBUQUERQUE    CLEAR     61  34  36 NW3       30.11R
EL PASO        CLEAR     74  20  13 W6        29.97S
$$


........................KEY........................
SKY/WX - SKY CONDITION/WEATHER
TMP    - TEMPERATURE IN FAHRENHEIT
DP     - DEW POINT IN FAHRENHEIT
RH     - RELATIVE HUMIDITY IN PERCENT
WIND   - DIRECTION AND SPEED IN MILES PER HOUR (MPH)
VRB    - VARIABLE WIND DIRECTION
PRES   - MEAN SEA LEVEL PRESSURE IN INCHES OF MERCURY
         F - FALLING PRESSURE   R - RISING PRESSURE
         S - STEADY PRESSURE
VSB    - VISIBILITY IN MILES
HX     - HEAT INDEX IN FAHRENHEIT
WCI    - WIND CHILL INDEX IN FAHRENHEIT
TC     - TEMPERATURE IN CELSIUS WHICH IS ALSO KNOWN AS
         TEMPERATURE IN CENTIGRADE
AFB    - AIR FORCE BASE
         LUKE AFB IS LUKE AIR FORCE BASE
         DAVIS-MONTHAN IS DAVIS-MONTHAN AIR FORCE BASE
NAS    - NAVAL AIR STATION
         EL CENTRO NAS IS EL CENTRO NAVAL AIR STATION
N/A    - NOT AVAILABLE




USA.gov is the U.S. government's official web portal to all federal, state and local government web resources and services.